GEFSMW_con_probscp_114.txt.gz
Probability
10 11 13 14 14 13 10 7 5 5 6 6 5 3 1 0 0 0 0 0 0 0 0 0 0 0 0 0 0 0 0 0 0 0 0 0 0 0 0 1 2 2 2
6 8 10 11 11 9 6 5 4 3 3 3 2 1 0 0 0 0 0 0 0 0 0 0 0 0 0 0 0 0 0 0 0 0 0 0 0 0 0 0 1 2 2
3 3 5 7 6 4 3 2 2 2 1 0 0 0 0 0 0 0 0 0 0 0 0 0 0 0 0 0 0 0 0 0 0 0 0 0 0 0 0 0 0 1 1
2 1 2 4 3 3 2 1 0 1 1 0 0 0 0 0 0 0 0 0 0 0 0 0 0 0 0 0 0 0 0 0 0 0 0 0 0 0 0 0 0 0 0
1 0 1 1 1 1 1 0 0 0 0 0 0 0 0 0 0 0 0 0 0 0 0 0 0 0 0 0 0 0 0 0 0 0 0 0 0 0 0 0 0 0 0
0 0 0 0 0 0 0 0 0 0 0 0 0 0 0 0 0 0 0 0 0 0 0 0 0 0 0 0 0 0 0 0 0 0 0 0 0 0 0 0 0 0 0
0 0 0 0 0 0 0 0 0 0 0 0 0 0 0 0 0 0 0 0 0 0 0 0 0 0 0 0 0 0 0 0 0 0 0 0 0 0 0 0 0 0 0
0 0 0 0 0 0 0 0 0 0 0 0 0 0 0 0 0 0 0 0 0 0 0 0 0 0 0 0 0 0 0 0 0 0 0 0 0 0 0 0 0 0 0
0 0 0 0 0 0 0 0 0 0 0 0 0 0 0 0 0 0 0 0 0 0 0 0 0 0 0 0 0 0 0 0 0 0 0 0 0 0 0 0 0 0 0
0 0 0 0 0 0 0 0 0 0 0 0 0 0 0 0 0 0 0 0 0 0 0 0 0 0 0 0 0 0 0 0 0 0 0 0 0 0 0 0 0 0 0
0 0 0 0 0 0 0 0 0 0 0 0 0 0 0 0 0 0 0 0 0 0 0 0 0 0 0 0 0 0 0 0 0 0 0 0 0 0 0 0 0 0 0
0 0 0 0 0 0 0 0 0 0 0 0 0 0 0 0 0 0 0 0 0 0 0 0 0 0 0 0 0 0 0 0 0 0 0 0 0 0 0 0 0 0 0
0 0 0 0 0 0 0 0 0 0 0 0 0 0 0 0 0 0 0 0 0 0 0 0 0 0 0 0 0 0 0 0 0 0 0 0 0 0 0 0 0 0 0
0 0 0 0 0 0 0 0 0 0 0 0 0 0 0 0 0 0 0 0 0 0 0 0 0 0 0 0 0 0 0 0 0 0 0 0 0 0 0 0 0 0 0
0 0 0 0 0 0 0 0 0 0 0 0 0 0 0 0 0 0 0 0 0 0 0 0 0 0 0 0 0 0 0 0 0 0 0 0 0 0 0 0 0 0 0
0 0 0 0 0 0 0 0 0 0 0 0 0 0 0 0 0 0 0 0 0 0 0 0 0 0 0 0 0 0 0 0 0 0 0 0 0 0 0 0 0 0 0
0 0 0 0 0 0 0 0 0 0 0 0 0 0 0 0 0 0 0 0 0 0 0 0 0 0 0 0 0 0 0 0 0 0 0 0 0 0 0 0 0 0 0
0 0 0 0 0 0 0 0 0 0 0 0 0 0 0 0 0 0 0 0 0 0 0 0 0 0 0 0 0 0 0 0 0 0 0 0 0 0 0 0 0 0 0
0 0 0 0 0 0 0 0 0 0 0 0 0 0 0 0 0 0 0 0 0 0 0 0 0 0 0 0 0 0 0 0 0 0 0 0 0 0 0 0 0 0 0
0 0 0 0 0 0 0 0 0 0 0 0 0 0 0 0 0 0 0 0 0 0 0 0 0 0 0 0 0 0 0 0 0 0 0 0 0 0 0 0 0 0 0
0 0 0 0 0 0 0 0 0 0 0 0 0 0 0 0 0 0 0 0 0 0 0 0 0 0 0 0 0 0 0 0 0 0 0 0 0 0 0 0 0 0 0
0 0 0 0 0 0 0 0 0 0 0 0 0 0 0 0 0 0 0 0 0 0 0 0 0 0 0 0 0 0 0 0 0 0 0 0 0 0 0 0 0 0 0
0 0 0 0 0 0 0 0 0 0 0 0 0 0 0 0 0 0 0 0 0 0 0 0 0 0 0 0 0 0 0 0 0 0 0 0 0 0 0 0 0 0 0
0 0 0 0 0 0 0 0 0 0 0 0 0 0 0 0 0 0 0 0 1 1 0 0 0 0 0 0 0 0 0 0 0 0 0 0 0 0 0 0 0 0 0
0 0 0 0 0 0 0 0 0 0 0 0 0 0 0 0 0 0 0 0 1 1 0 0 0 0 0 0 0 0 0 0 0 0 0 0 0 0 0 0 0 0 0
0 0 0 0 0 0 0 0 0 0 0 0 0 0 0 0 0 0 0 0 1 1 0 0 0 0 0 0 0 0 0 0 0 0 0 0 0 0 0 0 0 0 0

GEFSMW_con_probscp_120.txt.gz
Probability
10 10 10 9 6 6 8 7 4 2 2 2 1 0 0 0 0 0 0 0 0 0 0 0 0 0 0 0 0 0 0 0 0 0 0 0 0 0 0 0 0 0 0
10 9 9 7 5 5 6 5 3 1 1 1 0 0 0 0 0 0 0 0 0 0 0 0 0 0 0 0 0 0 0 0 0 0 0 0 0 0 0 0 0 0 0
9 8 6 4 3 3 3 3 1 0 0 0 0 0 0 0 0 0 0 0 0 0 0 0 0 0 0 0 0 0 0 0 0 0 0 0 0 0 0 0 0 0 0
6 4 2 3 3 2 2 2 1 0 0 0 0 0 0 0 0 0 0 0 0 0 0 0 0 0 0 0 0 0 0 0 0 0 0 0 0 0 0 0 0 0 0
2 1 0 1 1 2 2 2 0 0 0 0 0 0 0 0 0 0 0 0 0 0 0 0 0 0 0 0 0 0 0 0 0 0 0 0 0 0 0 0 0 0 0
1 0 0 0 0 1 2 1 0 0 0 0 0 0 0 0 0 0 0 0 0 0 0 0 0 0 0 0 0 0 0 0 0 0 0 0 0 0 0 0 0 0 0
0 0 0 0 0 1 1 1 0 0 0 0 0 0 0 0 0 0 0 0 0 0 0 0 0 0 0 0 0 0 0 0 0 0 0 0 0 0 0 0 0 0 0
0 0 0 0 0 0 0 0 0 0 0 0 0 0 0 0 0 0 0 0 0 0 0 0 0 0 0 0 0 0 0 0 0 0 0 0 0 0 0 0 0 0 0
0 0 0 0 0 0 0 0 0 0 0 0 0 0 0 0 0 0 0 0 0 0 0 0 0 0 0 0 0 0 0 0 0 0 0 0 0 0 0 0 0 0 0
0 0 0 0 0 0 0 0 0 0 0 0 0 0 0 0 0 0 0 0 0 0 0 0 0 0 0 0 0 0 0 0 0 0 0 0 0 0 0 0 0 0 0
0 0 0 0 0 0 0 0 0 0 0 0 0 0 0 0 0 0 0 0 0 0 0 0 0 0 0 0 0 0 0 0 0 0 0 0 0 0 0 0 0 0 0
0 0 0 0 0 0 0 0 0 0 0 0 0 0 0 0 0 0 0 0 0 0 0 0 0 0 0 0 0 0 0 0 0 0 0 0 0 0 0 0 0 0 0
0 0 0 0 0 0 0 0 0 0 0 0 0 0 0 0 0 0 0 0 0 0 0 0 0 0 0 0 0 0 0 0 0 0 0 0 0 0 0 0 0 0 0
0 0 0 0 0 0 0 0 0 0 0 0 0 0 0 0 0 0 0 0 0 0 0 0 0 0 0 0 0 0 0 0 0 0 0 0 0 0 0 0 0 0 0
0 0 0 0 0 0 0 0 0 0 0 0 0 0 0 0 0 0 0 0 0 0 0 0 0 0 0 0 0 0 0 0 0 0 0 0 0 0 0 0 0 0 0
0 0 0 0 0 0 0 0 0 0 0 0 0 0 0 0 0 0 0 0 0 0 0 0 0 0 0 0 0 0 0 0 0 0 0 0 0 0 0 0 0 0 0
0 0 0 0 0 0 0 0 0 0 0 0 0 0 0 0 0 0 0 0 0 0 0 0 0 0 0 0 0 0 0 0 0 0 0 0 0 0 0 0 0 0 0
0 0 0 0 0 0 0 0 0 0 0 0 0 0 0 0 0 0 0 0 0 0 0 0 0 0 0 0 0 0 0 0 0 0 0 0 0 0 0 0 0 0 0
0 0 0 0 0 0 0 0 0 0 0 0 0 0 0 0 0 0 0 0 0 0 0 0 0 0 0 0 0 0 0 0 0 0 0 0 0 0 0 0 0 0 0
0 0 0 0 0 0 0 0 0 0 0 0 0 0 0 0 0 0 0 0 0 0 0 0 0 0 0 0 0 0 0 0 0 0 0 0 0 0 0 0 0 0 0
0 0 0 0 0 0 0 0 0 0 0 0 0 0 0 0 0 0 0 0 0 0 0 0 0 0 0 0 0 0 0 0 0 0 0 0 0 0 0 0 0 0 0
0 0 0 0 0 0 0 0 0 0 0 0 0 0 0 0 0 0 0 0 0 0 0 0 0 0 0 0 0 0 0 0 0 0 0 0 0 0 0 0 0 0 0
0 0 0 0 0 0 0 0 0 0 0 0 0 0 0 0 0 0 0 0 0 0 0 0 0 0 0 0 0 0 0 0 0 0 0 0 0 0 0 0 0 0 0
0 0 0 0 0 0 0 0 0 0 0 0 0 0 0 0 0 0 0 0 0 0 0 0 0 0 0 0 0 0 0 0 0 0 0 0 0 0 0 0 0 0 0
0 0 0 0 0 0 0 0 0 0 0 0 0 0 0 0 0 0 0 0 0 0 0 0 0 0 0 0 0 0 0 0 0 0 0 0 0 0 0 0 0 0 0
0 0 0 0 0 0 0 0 0 0 0 0 0 0 0 0 0 0 0 0 0 0 0 0 0 0 0 0 0 0 0 0 0 0 0 0 0 0 0 0 0 0 0

GEFSMW_con_probscp_126.txt.gz
Probability
13 13 13 14 14 14 14 14 15 17 15 13 12 10 6 5 6 6 5 4 3 2 1 0 0 0 1 2 2 2 2 1 0 0 0 1 2 3 2 1 0 0 0
12 11 11 13 13 13 13 13 13 14 13 11 11 9 7 5 5 6 5 3 2 1 0 0 0 0 0 1 1 1 1 0 0 0 0 0 1 2 1 1 0 0 0
12 11 10 11 13 13 12 11 12 11 10 9 10 9 7 4 3 3 2 2 1 0 0 1 1 1 0 0 0 0 0 0 0 0 0 0 0 0 0 0 0 0 0
11 11 11 11 12 12 12 12 12 11 9 8 9 9 6 3 1 1 0 0 0 0 0 0 0 0 0 0 0 0 0 0 0 0 0 0 0 0 0 0 0 0 0
9 9 9 9 10 10 11 11 11 10 9 8 7 6 4 1 0 0 0 0 0 0 0 0 0 0 0 0 0 0 0 0 0 0 0 0 0 0 0 0 0 0 0
7 7 7 6 6 6 7 8 8 8 7 6 5 3 1 0 0 0 0 0 0 0 0 0 0 0 0 0 0 0 0 0 0 0 0 0 0 0 0 0 0 0 0
6 6 6 4 3 3 4 4 6 6 4 3 3 1 0 0 0 0 0 0 0 0 0 0 0 0 0 0 0 0 0 0 0 0 0 0 0 0 0 0 0 0 0
6 6 5 2 1 2 3 2 4 4 2 1 1 0 0 0 0 0 0 0 0 0 0 0 0 0 0 0 0 0 0 0 0 0 0 0 0 0 0 0 0 0 0
5 5 4 1 1 2 2 1 2 2 1 0 0 0 0 0 0 0 0 0 0 0 0 0 0 0 0 0 0 0 0 0 0 0 0 0 0 0 0 0 0 0 0
4 4 3 1 1 1 1 0 0 0 0 0 0 0 0 0 0 0 0 0 0 0 0 0 0 0 0 0 0 0 0 0 0 0 0 0 0 0 0 0 0 0 0
3 3 2 1 0 0 0 0 0 0 0 0 0 0 0 0 0 0 0 0 0 0 0 0 0 0 0 0 0 0 0 0 0 0 0 0 0 0 0 0 0 0 0
3 3 2 1 0 0 0 0 0 0 0 0 0 0 0 0 0 0 0 0 0 0 0 0 0 0 0 0 0 0 0 0 0 0 0 0 0 0 0 0 0 0 0
4 3 2 2 1 1 1 0 0 0 0 0 0 0 0 0 0 0 0 0 0 0 0 0 0 0 0 0 0 0 0 0 0 0 0 0 0 0 0 0 0 0 0
5 4 3 3 3 2 2 1 0 0 0 0 0 0 0 0 0 0 0 0 0 0 0 0 0 0 0 0 0 0 0 0 0 0 0 0 0 0 0 0 0 0 0
6 5 4 4 5 4 3 2 1 0 0 0 0 0 0 0 0 0 0 0 0 0 0 0 0 0 0 0 0 0 0 0 0 0 0 0 0 0 0 0 0 0 0
7 6 5 6 8 6 4 4 2 1 0 0 0 0 0 0 0 0 0 0 0 0 0 0 0 0 0 0 0 0 0 0 0 0 0 0 0 0 0 0 0 0 0
6 6 6 8 9 8 6 5 4 2 1 0 0 0 0 0 0 0 0 0 0 0 0 0 0 0 0 0 0 0 0 0 0 1 2 1 1 0 0 0 0 0 0
4 5 6 8 9 8 7 7 5 3 1 0 0 0 0 0 0 0 0 0 0 0 0 0 0 0 0 0 0 0 0 0 0 2 3 3 2 1 0 0 0 1 1
5 7 8 9 10 9 8 8 5 2 0 0 0 0 0 0 0 0 0 0 1 1 1 0 0 0 0 0 0 0 0 0 0 2 3 3 2 1 0 0 1 2 2
10 12 13 13 14 12 10 8 5 2 0 0 0 0 1 2 1 1 1 1 1 2 1 0 0 0 0 0 0 0 0 0 0 2 2 2 1 1 0 1 2 3 3
17 18 18 18 18 15 12 9 6 2 0 0 1 1 2 2 2 3 2 2 1 1 1 0 0 0 0 0 0 0 0 0 0 2 3 2 1 0 0 1 2 2 1
19 19 19 20 18 15 13 13 10 5 2 1 2 2 2 1 2 3 4 3 2 1 1 0 0 0 0 0 0 0 0 0 0 1 2 2 1 0 0 0 1 1 0
19 18 19 19 17 14 14 15 15 10 5 3 2 2 1 0 0 2 2 2 1 1 1 0 0 0 1 1 1 1 1 0 0 1 1 1 0 0 0 0 0 0 0
18 19 21 21 18 14 13 14 14 11 6 2 1 1 0 0 0 0 1 1 1 1 0 0 0 0 1 2 2 2 1 0 0 0 0 0 0 0 0 0 0 0 0
14 16 20 21 17 13 11 11 10 7 3 1 0 0 0 1 1 1 1 2 2 1 0 0 0 0 1 1 1 1 1 0 0 0 0 0 0 0 0 0 0 0 1
10 12 16 17 14 12 11 10 8 5 2 1 0 0 1 2 2 2 1 1 1 1 0 0 0 0 0 0 0 0 0 0 0 0 0 0 0 0 0 0 0 1 1

GEFSMW_con_probscp_132.txt.gz
Probability
28 30 30 29 30 32 35 37 39 35 30 26 25 26 23 17 14 14 13 10 8 6 5 3 2 2 3 3 2 2 1 0 0 0 0 0 0 1 2 3 2 2 2
27 27 26 25 27 28 29 30 30 27 23 21 19 20 19 15 13 12 12 9 7 5 4 2 1 1 1 1 1 1 0 0 0 0 0 0 0 1 1 2 1 1 1
23 22 21 23 24 22 21 22 22 20 17 15 13 13 14 13 12 12 10 8 6 5 3 2 1 0 0 0 0 0 0 0 0 0 0 0 0 0 0 0 0 0 0
18 17 17 18 19 17 16 19 20 18 15 13 12 12 12 13 13 12 10 9 7 5 3 3 2 1 1 0 0 0 0 0 0 0 0 0 0 0 0 0 0 0 0
13 12 12 12 13 13 13 16 19 17 14 12 12 12 12 12 13 12 9 8 6 4 3 2 2 2 1 0 0 0 0 0 0 0 0 0 0 0 0 0 0 0 0
8 9 10 11 12 12 14 15 17 16 13 12 12 12 12 13 12 10 6 4 4 2 1 1 1 1 1 0 0 0 0 0 0 0 0 0 0 0 0 0 0 0 0
7 8 10 12 12 12 13 16 16 14 13 12 12 12 11 11 9 6 3 1 1 1 0 0 0 0 0 0 0 0 0 0 0 0 0 0 0 0 0 0 0 0 0
7 7 9 10 10 9 12 15 15 13 12 11 10 10 9 7 5 3 1 0 0 0 0 0 0 0 0 0 0 0 0 0 0 0 0 0 0 0 0 0 0 0 0
8 8 8 8 8 8 10 12 12 10 9 8 7 7 6 3 2 1 0 0 0 0 0 0 0 0 0 0 0 0 0 0 0 0 0 0 0 0 0 0 0 0 0
9 9 8 8 7 8 9 10 9 7 5 5 5 4 3 1 1 0 0 0 1 1 0 0 0 0 0 0 0 0 0 0 0 0 0 0 0 0 0 0 0 0 0
9 10 9 9 8 7 8 9 7 4 3 3 3 3 1 0 0 0 1 1 1 0 0 0 0 0 0 0 0 0 0 0 0 0 0 0 0 0 0 0 0 0 0
9 9 10 10 8 7 7 7 5 3 2 3 3 2 1 0 0 0 1 1 0 0 0 0 0 0 0 0 0 0 0 0 0 0 0 0 0 0 0 0 0 0 0
11 11 12 14 13 11 10 8 5 3 3 3 3 2 1 0 0 0 0 0 0 0 0 0 0 0 0 0 0 0 0 0 0 0 0 0 1 1 1 0 0 0 0
14 16 21 25 24 21 18 14 9 7 5 4 4 4 2 1 1 0 0 0 0 0 0 0 0 0 0 0 1 1 0 0 0 0 0 1 1 2 2 1 1 1 0
17 24 34 39 36 31 28 24 19 15 12 11 10 8 5 4 3 2 2 2 1 0 1 1 1 1 1 0 1 1 1 1 1 1 2 1 1 1 1 1 1 1 1
24 32 45 53 50 42 37 35 31 26 22 19 15 12 9 8 5 4 4 4 3 2 3 3 3 2 1 0 1 1 1 2 2 3 3 2 1 1 1 1 1 1 0
33 41 54 63 62 55 49 45 42 38 31 23 17 15 13 11 8 6 5 6 6 5 5 5 4 3 2 0 0 0 1 1 3 3 3 3 2 2 3 2 1 1 1
43 52 61 67 68 65 59 53 48 44 36 27 21 18 16 13 9 7 7 8 8 7 7 7 6 4 2 0 0 0 0 1 2 2 2 2 2 3 4 4 4 4 3
56 60 64 65 68 67 63 58 51 45 37 30 25 23 19 15 11 10 11 13 13 11 9 8 8 7 4 2 0 0 0 0 1 1 1 1 2 2 2 3 5 6 6
64 64 63 66 71 70 66 62 53 45 39 34 31 28 24 20 17 16 18 19 17 15 11 10 12 12 10 5 1 0 0 0 0 0 1 1 1 1 0 1 4 5 5
62 63 64 70 75 74 71 66 58 48 43 39 35 33 29 25 23 25 26 24 20 17 14 13 13 15 13 7 2 0 0 0 0 0 0 0 0 0 0 0 1 2 2
57 60 67 74 77 77 74 71 63 55 49 44 40 39 36 28 25 29 31 27 22 17 15 14 13 14 13 8 3 0 0 0 0 0 0 0 0 0 0 0 0 0 0
55 58 68 75 76 76 75 72 68 62 55 50 47 46 42 34 28 28 28 25 21 17 13 12 11 13 13 11 5 2 0 0 0 0 0 0 0 0 0 0 0 0 0
57 61 69 74 73 72 71 70 69 65 59 54 52 49 44 37 30 26 21 18 17 16 13 11 11 12 13 10 6 3 2 2 1 0 0 0 0 0 0 0 0 0 1
59 62 67 69 68 66 66 66 66 64 58 54 50 45 37 31 27 21 14 11 11 12 11 9 9 10 9 5 3 3 3 4 3 1 0 0 0 1 1 1 2 4 5
61 62 65 67 66 65 63 63 63 62 57 53 47 37 28 24 21 16 10 6 5 6 6 5 6 6 4 1 0 1 2 3 2 1 0 0 1 2 3 4 6 9 11

GEFSMW_con_probscp_138.txt.gz
Probability
19 19 19 21 23 25 26 23 21 21 20 17 15 11 7 5 4 4 4 3 3 3 2 1 0 0 0 0 0 0 0 0 0 0 0 0 0 0 0 0 0 0 0
19 18 18 20 23 24 23 20 18 18 16 13 11 10 8 6 5 5 4 3 3 3 2 1 0 0 0 0 0 0 0 0 0 0 0 0 0 0 0 0 0 0 0
16 16 16 18 20 21 18 16 15 14 12 10 8 9 9 8 7 6 4 3 3 3 3 1 0 0 0 0 0 0 0 0 0 0 0 0 0 0 0 0 0 0 0
11 12 14 15 18 17 15 14 14 13 11 9 8 8 9 8 6 5 4 3 3 3 2 1 0 0 0 0 0 0 0 0 0 0 0 0 0 0 0 0 0 0 0
8 10 12 13 14 12 11 12 14 13 11 9 7 7 7 6 4 3 3 3 2 1 1 0 0 0 0 0 0 0 0 0 0 0 0 0 0 0 0 0 0 0 0
9 9 10 11 9 7 8 10 10 10 9 7 6 5 5 3 2 1 2 2 1 0 0 0 0 0 0 0 0 0 0 0 0 0 0 0 0 0 0 0 0 0 0
10 9 8 9 7 5 5 7 6 5 6 5 5 4 4 2 1 1 1 1 0 0 0 0 0 0 0 0 0 0 0 0 0 0 0 0 0 0 0 0 0 0 0
11 8 7 7 6 4 4 4 3 3 3 4 3 3 3 2 1 0 0 0 0 0 0 0 0 0 0 0 0 0 0 0 0 0 0 0 0 0 0 0 0 0 0
10 7 5 5 5 4 3 3 3 3 2 1 1 1 2 1 0 0 0 0 0 0 0 0 0 0 0 0 0 0 0 0 0 0 0 0 0 0 0 0 0 0 0
8 6 4 5 5 4 3 3 3 3 2 1 0 0 0 0 0 0 0 0 0 0 0 0 0 0 0 0 0 0 0 0 0 0 0 0 0 0 0 0 0 0 0
7 6 5 5 4 3 3 3 3 3 3 3 1 0 0 0 0 0 0 0 0 0 0 0 0 0 0 0 0 0 0 0 0 0 0 0 0 0 0 0 0 0 0
6 6 6 5 3 3 3 4 3 3 3 3 1 0 0 0 0 0 0 0 0 0 0 0 0 0 0 0 0 0 0 0 0 0 0 0 0 0 0 0 0 0 0
6 6 5 4 2 2 4 4 3 3 3 2 1 0 0 0 0 0 0 0 0 0 0 0 0 0 0 0 0 0 0 0 0 0 0 0 0 0 0 0 0 0 0
5 5 5 4 3 4 5 5 3 2 2 2 1 0 0 0 0 0 0 0 0 0 0 0 0 0 0 0 0 0 0 0 0 0 0 0 0 0 0 0 0 0 0
3 4 5 6 6 6 7 7 4 1 1 1 0 0 0 0 0 0 0 0 0 0 0 0 0 0 0 0 0 0 0 0 0 0 0 0 0 0 0 0 0 0 0
2 3 7 9 8 8 9 8 5 2 0 0 0 0 0 0 0 0 0 0 0 0 0 0 0 0 0 0 0 0 0 0 0 0 0 0 0 0 0 0 0 0 0
2 4 7 10 10 9 10 9 6 3 1 1 0 0 0 0 0 0 0 0 0 0 0 0 0 0 0 0 0 0 0 0 0 0 0 0 0 0 0 0 0 0 0
2 4 7 9 10 11 11 11 9 5 3 2 1 1 0 0 0 0 0 0 0 0 0 0 0 0 0 0 0 0 0 0 0 0 0 0 0 0 0 0 0 0 0
2 3 5 8 10 12 12 12 10 8 5 3 3 3 1 0 0 0 0 0 0 0 0 0 0 0 0 0 0 0 0 0 0 0 0 0 0 0 0 0 0 0 0
1 2 4 6 8 11 12 12 11 10 8 5 4 3 2 1 0 0 0 0 0 0 0 0 0 0 0 0 0 0 0 0 0 0 0 0 0 0 0 0 0 0 0
0 1 3 5 8 11 12 13 14 13 10 7 5 5 3 1 0 0 0 0 0 0 0 0 0 0 0 0 0 0 0 0 0 0 0 0 0 0 0 0 0 0 0
2 2 3 6 9 13 15 14 13 13 11 9 8 7 4 1 0 0 0 0 0 0 0 0 0 0 0 0 0 0 0 0 0 0 0 0 0 0 0 0 0 0 0
6 6 6 7 10 14 15 12 10 11 11 10 9 8 5 2 1 1 1 0 0 0 0 0 0 0 0 0 0 0 0 0 0 0 0 0 0 0 0 0 0 0 0
9 9 10 9 10 12 11 8 7 9 10 10 9 9 7 5 4 3 2 2 1 0 0 0 0 0 0 0 0 0 0 0 0 0 0 0 0 0 0 0 0 0 0
11 11 12 12 11 11 8 5 5 7 9 9 10 10 10 8 5 3 3 3 2 0 0 0 0 0 0 0 0 0 0 0 0 0 0 0 0 0 0 0 0 0 0
11 12 13 13 12 12 8 5 4 6 8 9 9 10 11 8 4 2 1 2 1 0 0 0 0 0 0 0 0 0 0 0 0 0 0 0 0 0 0 0 0 0 0

GEFSMW_con_probscp_144.txt.gz
Probability
17 18 19 21 21 17 11 8 8 8 8 8 7 6 5 4 4 4 4 2 0 0 0 0 0 0 0 0 0 0 0 0 0 0 0 0 0 0 0 0 0 0 0
16 16 17 19 19 16 12 9 8 8 8 7 7 6 5 5 5 5 4 2 1 0 0 0 0 0 0 0 0 0 0 0 0 0 0 0 0 0 0 0 0 0 0
13 14 15 18 19 16 13 10 7 7 6 6 6 6 6 6 5 4 2 2 1 0 0 0 0 0 0 0 0 0 0 0 0 0 0 0 0 0 0 0 0 0 0
10 12 14 17 17 15 12 9 6 4 4 4 4 4 5 5 4 3 1 0 0 0 0 0 0 0 0 0 0 0 0 0 0 0 0 0 0 0 0 0 0 0 0
9 10 13 14 14 12 10 7 4 3 4 4 4 3 4 4 3 2 1 0 0 0 0 1 0 0 0 0 0 0 0 0 0 0 0 0 0 0 0 0 0 0 0
7 8 10 11 10 10 8 5 4 3 3 4 3 3 3 3 3 2 1 0 0 0 0 0 0 0 0 0 0 0 0 0 0 0 0 0 0 0 0 0 0 0 0
6 7 7 7 8 7 6 6 5 4 3 3 3 4 3 3 3 3 1 0 0 0 0 0 0 0 0 0 0 0 0 0 0 0 0 0 0 0 0 0 0 0 0
6 6 6 6 6 6 5 6 6 5 3 3 4 4 4 3 3 3 2 1 0 0 0 0 0 0 0 0 0 0 0 0 0 0 0 0 0 0 0 0 0 0 0
6 6 6 6 6 6 5 5 6 5 4 4 4 4 3 3 3 3 2 1 0 0 0 0 0 0 0 0 0 0 0 0 0 0 0 0 0 0 0 0 0 0 0
6 6 6 6 6 5 4 3 4 4 3 3 4 3 3 3 3 3 1 0 0 0 0 0 0 0 0 0 0 0 0 0 0 0 0 0 0 0 0 0 0 0 0
6 6 6 6 5 4 3 3 3 3 2 2 3 4 3 3 3 2 1 0 0 0 0 0 0 0 0 0 0 0 0 0 0 0 0 0 0 0 0 0 0 0 0
5 5 5 5 4 3 3 3 3 3 1 1 2 3 3 3 1 1 0 0 0 0 0 0 0 0 0 0 0 0 0 0 0 0 0 0 0 0 0 0 0 0 0
3 3 3 3 4 4 3 3 3 3 2 1 1 2 2 2 1 0 0 0 0 0 0 0 0 0 0 0 0 0 0 0 0 0 0 0 0 0 0 0 0 0 0
2 1 1 2 3 4 4 3 3 2 2 1 0 0 1 1 1 0 0 0 0 0 0 0 0 0 0 0 0 0 0 0 0 0 0 0 0 0 0 0 0 0 0
1 0 0 1 1 2 3 2 1 1 1 0 0 0 0 0 0 0 0 0 0 0 0 0 0 0 0 0 0 0 0 0 0 0 0 0 0 0 0 0 0 0 0
0 0 0 0 0 1 1 1 0 0 0 0 0 0 0 0 0 0 0 0 0 0 0 0 0 0 0 0 0 0 0 0 0 0 0 0 0 0 0 0 0 0 0
1 0 1 1 0 0 0 0 1 1 0 0 0 0 0 0 0 0 0 0 0 0 0 0 0 0 0 0 0 0 0 0 0 0 0 0 0 0 0 0 0 0 0
1 1 2 2 1 0 0 1 2 2 1 0 0 0 0 0 0 0 0 0 0 0 0 0 0 0 0 0 0 0 0 0 0 0 0 0 0 0 0 0 0 0 0
1 1 2 2 1 0 1 2 3 2 1 0 0 0 0 0 0 0 0 0 0 0 0 0 0 0 0 0 0 0 0 0 0 0 0 0 0 0 0 0 0 0 0
0 0 1 1 1 0 1 3 3 2 1 0 0 0 0 0 0 0 0 0 0 0 0 0 0 0 0 0 0 0 0 0 0 0 0 0 0 0 0 0 0 0 0
0 0 0 0 0 0 2 3 3 3 2 1 0 0 0 0 0 0 0 0 0 0 0 0 0 0 0 0 0 0 0 0 0 0 0 0 0 0 0 0 0 0 0
0 0 0 0 0 0 1 2 3 3 3 2 1 1 1 1 0 0 0 0 0 0 0 0 0 0 0 0 0 0 0 0 0 0 0 0 0 0 0 0 0 0 0
0 0 0 0 0 0 0 1 2 2 3 2 2 2 2 2 1 1 0 0 0 0 0 0 0 0 0 0 0 0 0 0 0 0 0 0 0 0 0 0 0 0 0
0 0 0 0 0 0 0 0 1 1 1 3 4 4 3 2 2 1 0 0 0 0 0 0 0 0 0 0 0 0 0 0 0 0 0 0 0 0 0 0 0 0 0
0 0 0 0 0 0 0 0 0 0 1 3 5 4 3 2 1 1 0 0 0 0 0 0 0 0 0 0 0 0 0 0 0 0 0 0 0 0 0 0 0 0 0
0 0 0 0 0 0 0 0 0 0 0 1 3 3 2 1 0 0 0 0 0 0 0 0 0 0 0 0 0 0 0 0 0 0 0 0 0 0 0 0 0 0 0

GEFSMW_con_probscp_150.txt.gz
Probability
20 19 17 17 22 26 27 30 33 35 36 34 30 25 21 19 16 14 13 12 9 7 3 1 0 0 0 0 0 0 0 0 0 0 0 0 0 0 0 0 0 0 0
22 21 20 21 25 27 25 26 29 32 34 33 29 25 21 19 19 18 16 12 8 6 4 2 1 0 0 0 0 0 0 0 0 0 0 0 0 0 0 0 0 0 0
23 23 23 25 26 25 23 22 25 29 32 31 28 24 20 19 20 21 18 12 8 6 5 4 2 1 0 0 0 0 0 0 0 0 0 0 0 0 0 0 0 0 0
23 23 23 22 22 21 20 21 25 29 31 30 25 19 17 18 21 23 19 13 9 7 6 5 4 2 1 1 1 1 0 0 0 0 0 0 0 0 0 0 0 0 0
20 19 18 17 17 17 18 20 23 26 29 27 22 17 15 17 20 21 18 13 10 8 6 6 5 3 2 2 2 2 1 0 0 0 0 0 0 0 0 0 0 0 0
14 14 14 15 15 15 16 18 20 22 25 23 19 16 15 16 16 14 13 12 11 9 7 5 4 3 3 3 3 3 1 0 0 0 0 0 0 0 0 0 0 0 0
10 10 12 15 15 15 15 16 18 20 21 19 16 14 13 13 12 10 9 10 10 10 8 5 3 3 3 3 3 3 2 1 0 0 0 0 0 0 0 0 0 0 0
10 9 11 15 16 15 14 14 16 18 19 18 17 14 11 10 10 9 8 9 10 9 8 6 4 3 3 3 3 3 3 2 0 0 0 0 0 0 0 0 0 0 0
8 8 9 12 14 15 14 13 13 14 16 17 16 14 10 8 8 8 8 9 9 9 7 6 4 3 3 3 3 3 2 1 0 0 0 0 0 0 0 0 0 0 0
6 7 8 10 12 14 14 11 9 9 10 12 11 9 9 7 7 8 8 9 10 9 7 6 4 4 3 3 3 2 1 0 0 0 0 0 0 0 0 0 0 0 0
6 6 7 9 11 13 13 10 8 6 7 8 8 7 8 8 7 7 8 8 10 9 8 6 5 5 4 2 1 1 0 0 0 0 0 0 0 0 0 0 0 0 0
5 6 7 9 11 12 11 10 7 6 7 7 7 7 8 8 8 8 8 7 7 8 7 6 6 4 3 1 0 0 0 0 0 0 0 0 0 0 0 0 0 0 0
4 5 7 9 10 11 10 8 6 6 7 7 7 7 8 9 9 9 9 7 5 5 6 6 5 2 1 0 0 0 0 0 0 0 0 0 0 0 0 0 0 0 0
5 6 8 10 10 11 9 8 7 7 7 7 6 6 7 9 10 10 9 7 4 3 4 5 3 1 0 0 0 0 0 0 0 0 0 0 0 0 0 0 0 0 0
6 8 9 10 11 11 10 9 9 9 8 7 6 7 10 12 13 12 10 7 4 3 4 4 2 0 0 0 0 0 0 0 0 0 0 0 0 0 0 0 0 0 1
6 9 11 12 13 14 13 12 10 9 8 7 7 10 14 17 16 13 10 7 5 4 4 4 2 1 0 0 0 0 0 0 0 0 0 0 0 0 0 0 0 0 1
5 9 13 13 13 14 15 14 12 10 8 7 8 11 15 17 15 12 8 7 6 6 5 4 3 1 0 0 0 0 0 0 0 0 0 0 0 0 0 0 0 0 1
6 9 12 12 11 11 13 13 12 10 7 7 7 9 12 14 13 11 9 8 8 8 7 5 2 1 0 0 0 0 0 0 0 0 0 1 0 0 0 0 0 1 2
7 9 10 8 7 9 11 12 11 9 8 7 8 8 11 12 13 13 13 12 11 9 8 5 3 2 1 0 0 0 0 0 0 0 0 0 0 0 0 0 1 3 5
7 9 10 9 9 12 15 15 14 12 11 9 9 11 13 15 15 17 18 16 13 11 8 6 4 3 2 1 0 0 0 0 0 0 0 0 0 0 0 0 2 5 7
8 8 10 11 14 18 22 22 20 18 17 15 14 16 18 18 18 19 20 19 16 13 10 8 6 4 3 1 0 0 0 0 1 1 0 0 0 0 0 0 1 3 4
14 13 12 13 15 20 25 26 26 26 27 25 23 23 24 23 21 21 23 22 19 14 11 9 8 6 4 2 0 0 0 0 1 1 0 0 0 0 0 0 0 1 1
22 20 16 12 12 16 21 24 29 35 39 38 34 32 32 30 27 25 24 22 19 14 11 11 10 9 8 5 2 1 0 0 1 1 0 0 0 0 0 0 0 0 0
25 23 19 12 10 13 16 20 27 37 43 43 40 37 36 35 33 28 24 22 20 16 15 16 15 12 11 8 5 3 3 3 2 2 2 2 2 2 2 2 2 2 2
23 23 19 15 13 15 18 20 25 34 42 43 40 36 34 35 33 29 24 20 18 15 14 16 14 11 9 7 4 4 4 5 4 3 3 5 5 4 4 4 4 4 3
21 21 19 17 16 18 21 22 26 34 43 45 40 34 31 31 31 28 22 15 11 9 8 9 9 7 5 3 2 2 3 3 3 2 3 5 5 5 4 4 4 4 3

GEFSMW_con_probscp_156.txt.gz
Probability
72 74 74 70 67 67 67 65 65 64 59 54 53 52 49 45 39 35 32 28 22 14 9 8 8 5 3 1 0 0 0 0 0 0 0 0 1 1 1 0 0 0 0
76 76 76 72 68 67 66 65 64 63 59 55 53 52 50 45 39 34 33 30 25 17 11 10 8 5 3 2 1 1 0 0 0 0 0 0 0 0 0 0 0 0 0
77 78 77 71 64 63 62 60 60 60 58 54 50 48 47 43 36 33 32 29 24 19 16 14 11 6 4 4 4 2 1 0 0 0 0 0 0 0 0 0 0 0 0
71 72 71 65 59 56 55 55 55 56 55 51 45 42 42 40 35 33 33 29 23 19 18 17 14 8 5 6 6 4 2 0 0 0 0 0 0 0 0 0 0 0 0
63 63 61 58 54 50 48 49 50 49 50 48 42 38 39 40 37 35 35 32 25 20 17 16 14 10 7 7 6 5 3 1 0 0 0 0 0 0 0 0 0 0 0
59 58 56 53 49 43 41 43 44 44 47 46 40 37 39 40 37 35 35 31 26 21 15 14 14 11 8 8 7 5 3 2 2 1 1 0 0 0 0 0 0 0 0
58 57 56 51 43 37 36 39 40 40 41 40 38 38 39 37 33 31 30 25 22 19 16 15 14 12 9 8 7 5 3 3 3 2 1 0 0 0 0 0 0 0 0
52 53 52 47 38 34 34 36 36 35 34 34 36 37 35 30 25 24 23 20 18 18 18 17 15 13 11 8 6 5 4 3 3 3 2 1 0 0 0 0 0 0 0
44 45 44 41 38 34 32 31 30 29 30 32 33 32 30 25 21 19 19 18 18 19 19 17 16 14 12 9 7 5 4 3 3 3 2 1 0 0 0 0 0 0 0
38 40 39 39 39 35 30 27 26 27 28 28 26 24 24 23 20 18 18 19 20 21 19 17 16 14 12 9 7 5 4 3 3 3 2 1 0 0 0 0 0 0 0
33 37 38 38 38 35 30 28 27 26 26 24 21 18 19 20 19 17 18 21 22 22 20 17 15 13 11 10 7 6 5 4 3 2 1 0 0 0 0 0 0 0 0
27 31 34 36 36 34 32 32 28 25 23 21 18 15 16 17 16 16 18 21 23 21 19 17 15 13 12 10 8 6 5 4 2 1 0 0 0 0 0 0 0 0 0
25 28 32 35 37 37 37 35 29 22 20 19 17 15 16 16 15 15 18 21 22 20 18 17 15 13 12 10 8 7 6 3 1 0 0 0 0 0 0 0 0 0 0
30 32 37 39 41 43 42 37 30 23 20 20 17 16 16 16 14 15 19 22 21 19 17 17 15 13 11 10 8 7 5 2 0 0 0 0 0 0 0 0 0 0 0
33 38 43 45 46 48 47 42 35 29 26 24 20 18 18 16 15 16 19 22 22 21 18 16 13 11 9 8 7 6 4 1 0 0 0 0 0 0 0 0 0 0 0
28 37 45 48 49 51 50 48 43 39 35 30 25 24 24 21 19 19 21 24 24 22 20 16 12 8 5 4 3 3 2 1 1 1 1 0 0 0 0 0 0 0 0
27 36 44 46 46 47 49 49 47 45 40 33 29 29 31 30 28 25 27 30 29 27 24 19 12 6 3 1 0 1 1 3 4 3 2 1 0 0 0 0 0 0 0
34 40 44 42 40 40 43 44 43 43 40 34 30 32 35 38 37 36 37 40 39 36 31 24 16 8 3 0 0 0 1 3 5 4 3 2 1 0 0 0 0 1 1
36 42 44 42 42 42 42 41 41 41 40 36 35 39 43 45 44 45 48 50 48 43 36 27 19 14 7 2 0 0 0 2 3 4 2 1 1 0 0 0 1 2 2
34 40 45 48 50 51 48 44 42 43 43 42 43 49 54 54 53 54 58 58 53 46 37 28 22 19 13 5 0 0 0 0 2 3 2 1 0 0 0 1 2 3 3
27 34 44 52 57 57 54 50 47 46 47 48 51 56 59 58 56 61 65 62 52 43 36 30 25 21 15 6 1 0 0 0 0 1 1 0 0 0 0 1 2 2 2
25 30 39 48 55 57 57 57 55 51 50 52 55 59 60 55 53 59 62 56 44 35 31 29 24 19 13 6 1 0 0 0 0 0 0 0 0 0 0 0 1 1 1
27 29 34 42 48 51 54 58 60 57 54 55 57 60 59 55 52 52 51 44 36 26 23 22 20 17 15 10 4 0 0 0 0 0 0 0 0 0 0 0 0 0 0
25 28 32 38 43 45 48 53 59 60 58 57 59 59 57 55 52 47 40 34 29 25 20 18 17 18 17 13 6 2 0 0 0 0 0 1 1 1 1 1 2 2 2
23 26 31 34 37 41 45 49 54 59 60 59 59 58 55 52 48 41 31 25 23 21 17 14 13 14 13 9 5 3 1 0 1 0 0 1 2 2 2 3 3 4 4
24 25 28 30 32 39 45 47 52 57 59 59 59 58 54 51 45 36 25 17 14 13 11 10 9 9 7 4 2 2 1 0 1 0 0 1 2 2 1 2 3 4 4